Location: Tamazert
(32.6352°N, 5.2072°W)
Time: 16:39:29
(UTC+00:00)

Transit 2A Rocket - Pass Details

Date: 05 October 2022
Orbit: 589 x 912 km, 66.7° (Epoch: 07 December)

Event Time Altitude Azimuth Distance (km) Brightness Sun altitude
Rises 03:55:55 0° 167° (SSE) 2,879 - -30.4°
Exits shadow 03:58:33 - 149° (SSE) 2,046 7.4 -29.9°
Reaches altitude 10° 03:58:57 10° 145° (SE) 1,941 7.3 -29.8°
Maximum altitude 04:01:35 16° 107° (ESE) 1,571 7.2 -29.2°
Drops below altitude 10° 04:04:12 10° 69° (ENE) 1,915 8.0 -28.7°
Sets 04:07:08 0° 48° (NE) 2,820 8.8 -28.1°
